Regional Weather Roundup
Issued by NWS

Home | Current Version | Previous Version | Text Only | Print | Product List | Glossary On
Versions: 1 2 3 4 5 6 7 8 9 10 11 12 13 14 15 16 17 18 19 20 21 22 23 24 25 26 27 28 29 30 31 32 33 34 35 36 37 38 39 40 41 42 43 44 45 46 47 48 49 50
000
ASUS45 KTFX 051410
RWRMT
MONTANA REGIONAL WEATHER ROUNDUP
NATIONAL WEATHER SERVICE GREAT FALLS MT
800 AM MDT THU MAY 05 2016

NOTE: "FAIR" INDICATES FEW OR NO CLOUDS BELOW 12000 FEET WITH NO
SIGNIFICANT WEATHER AND/OR OBSTRUCTIONS TO VISIBILITY.

MTZ001>007-043-051500-
WEST OF THE DIVIDE

CITY           SKY/WX    TMP DP  RH WIND       PRES   REMARKS
KALISPELL      PTSUNNY   56  50  80 CALM      29.93R
MISSOULA       CLOUDY    52  43  71 E6        30.00R
BUTTE          CLOUDY    44  35  70 E3        30.02S
MULLAN PASS    CLOUDY    46  40  79 VRB5      30.01S
ANACONDA         N/A     54  34  47 S7        29.99R
DEER LODGE       N/A     52  37  58 NE3       30.00R
EUREKA           N/A     57  46  67 CALM      29.94
HAMILTON         N/A     54  39  58 CALM      29.99R
LIBBY            N/A     54  48  82 CALM      29.95R
PLAINS           N/A     56  47  71 CALM      29.95R
THOMPSON FALLS   N/A     55  51  86 MISG      29.98R
$$

MTZ008-052>055-051500-
SOUTHWEST MONTANA

CITY           SKY/WX    TMP DP  RH WIND       PRES   REMARKS
BOZEMAN        CLOUDY    53  39  59 S7        29.98S
DILLON         CLOUDY    49  36  61 SW8       30.01R
ENNIS          SUNNY     48  36  61 CALM      30.08R
THREE FORKS      N/A     46  40  79 CALM      29.97R
TWIN BRIDGES     N/A     48  33  56 SE2       29.99R
$$

MTZ009-010-012-014-046-048-049-054-051500-
EAST SLOPES AND CENTRAL MONTANA

CITY           SKY/WX    TMP DP  RH WIND       PRES   REMARKS
CUT BANK       PTSUNNY   52  44  74 W8        29.91S
GREAT FALLS    CLOUDY    54  42  64 SW6       29.91R
MALMSTROM AFB  CLOUDY    53  42  64 W3        29.91R
HELENA         CLOUDY    53  36  52 CALM      29.95S
CHOTEAU          N/A     59  41  51 CALM      29.92S
CONRAD           N/A     57  53  86 CALM      29.93S
$$

MTZ011-013-016-021-045-047-050-051-051500-
NORTH CENTRAL MONTANA

CITY           SKY/WX    TMP DP  RH WIND       PRES   REMARKS
HAVRE          PTSUNNY   50  45  83 SW6       29.86R
LEWISTOWN      CLOUDY    54  39  57 SE9       29.93S
N BAR RANCH      N/A     59  36  41 W10       29.96S
$$

MTZ017>020-022>027-061-062-051500-
NORTHEAST MONTANA

CITY           SKY/WX    TMP DP  RH WIND       PRES   REMARKS
GLASGOW        SUNNY     61  44  53 SE10      29.82R
JORDAN           N/A     60  48  64 CALM      29.84S
SIDNEY         SUNNY     59  46  63 S7        29.87R
WOLF POINT     SUNNY     59  47  64 E3        29.83F
POPLAR           N/A     63  45  51 SE3       29.84S
SCOBEY           N/A     60  40  47 S1        29.82F
$$

MTZ028>42-056>058-051500-
SOUTHCENTRAL AND SOUTHEAST MONTANA

CITY           SKY/WX    TMP DP  RH WIND       PRES   REMARKS
BAKER          SUNNY     60  46  59 SE7       29.92F
BILLINGS       PTSUNNY   57  37  47 SW14      29.93R
LIVINGSTON     CLOUDY    53  33  46 NW17G30   29.98R
MILES CITY     SUNNY     61  45  55 SE13      29.88R
EKALAKA          N/A     65  46  50 E6        29.93S
FORSYTH          N/A     59  46  63 CALM      29.88R
LAUREL           N/A     54  39  56 S5        29.93R
ROUNDUP          N/A     55  36  49 S9        29.85R
$$

REGIONAL REPORTS...DAKOTAS

CITY           SKY/WX    TMP DP  RH WIND       PRES   REMARKS
WILLISTON      SUNNY     62  45  53 S8        29.86S
MINOT          SUNNY     72  42  34 SW18G29   29.84F
DICKINSON      SUNNY     62  43  49 S13       29.89F
BEACH            N/A     63  46  55 S8        29.93S
CROSBY           N/A     64  45  48 SW16      29.84F
TIOGA            N/A     66  41  39 SW12      29.91S
WATFORD CITY     N/A     66  46  48 CALM      29.87F
BISMARCK       SUNNY     68  44  42 SW5       29.93S
GRAND FORKS    MOSUNNY   72  45  37 SW7       29.84S
FARGO          SUNNY     63  37  38 S13       29.91S
BUFFALO SD       N/A     56  46  69 CALM      29.88S
RAPID CITY     SUNNY     56  45  66 SE5       29.96S
$$

REGIONAL REPORTS...WYOMING/IDAHO/WASHINGTON

CITY           SKY/WX    TMP DP  RH WIND       PRES   REMARKS
GILLETTE       SUNNY     58  43  57 S13       29.99S
SHERIDAN       CLOUDY    57  45  64 CALM      29.95S
BUFFALO WY       N/A     65  39  38 CALM      30.00S
CODY           CLOUDY    57  32  38 CALM      30.02R
YELLOWSTONE LA   N/A     41  32  70 CALM      30.20S
IDAHO FALLS    CLOUDY    49  39  68 N7        29.99R
SALMON         CLOUDY    46  36  66 S5        29.99R
BOISE          PTSUNNY   57  44  62 NW6       29.88S
SPOKANE        PTSUNNY   54  52  93 CALM      29.94S
$$

REGIONAL REPORTS...ALBERTA

CITY           SKY/WX    TMP DP  RH WIND       PRES   REMARKS
EDMONTON       LGT RAIN  52  32  46 NW13G22   29.97R
CALGARY        CLOUDY    52  30  43 N26G32    29.96R
LETHBRIDGE     PTSUNNY   61  43  51 N8G18     29.92R
WATERTON GATE    N/A     50  41  71 S3          N/A
MILK RIVER       N/A     59  45  58 NW8         N/A
ONEFOUR          N/A     61  41  48 NW17        N/A
$$

REGIONAL REPORTS...SASKATCHEWAN

CITY           SKY/WX    TMP DP  RH WIND       PRES   REMARKS
SWIFT CURRENT  SUNNY     66  39  37 SW12      29.79S
REGINA         MOSUNNY   63  39  42 SE6       29.79S
SASKATOON      PTSUNNY   66  45  45 N6        29.73S
CYPRESS HILLS    N/A     63  34  34 NW7         N/A
VAL MARIE        N/A     57  43  58 E2          N/A
ROCKGLEN         N/A     66  39  37 SW9         N/A
$$



USA.gov is the U.S. government's official web portal to all federal, state and local government web resources and services.